Regional Weather Roundup
Issued by NWS Upton, NY

Current Version | Previous Version | Text Only | Print | Product List | Glossary On
Versions: 1 2 3 4 5 6 7 8 9 10 11 12 13 14 15 16 17 18 19 20 21 22 23 24 25 26
000
ASUS41 KOKX 180905
RWROKX

Regional Weather Roundup
National Weather Service New York NY
400 AM EST SUN FEB 18 2018

Note: "FAIR" indicates few or no clouds below 12,000 feet with no
significant weather and/or obstructions to visibility.

NYZ071-072-176-178-NJZ106-104-181000-
New York City Metro Area

CITY           SKY/WX    TMP DP  RH WIND       PRES   REMARKS
Central Park   CLOUDY    34  32  92 W9        30.01R WCI  27
Bronx Bot Gard   N/A     34  32  93 SW3       29.99F
Bronx Lehman C   N/A     34  32  93 W6          N/A  WCI  29
LaGuardia Arpt CLOUDY    35  32  88 W9        29.99R WCI  28
Queens College   N/A     34  32  93 NW7         N/A  WCI  28
Kennedy Intl   CLOUDY    34  33  96 W12       30.00R WCI  25
Breezy Point     N/A     32 N/A N/A W9G15       N/A  WCI  24
Brooklyn Coll    N/A     34  32  93 W12         N/A  WCI  25
Staten Island    N/A     32  32 100 W8          N/A  WCI  25
Newark/Liberty MOCLDY    34  32  92 W8        30.02R WCI  27
Teterboro      CLOUDY    34  31  88 W6        29.99R FOG     WCI  29
$$

NYZ177-179-078>081-181000-
Long Island New York

CITY           SKY/WX    TMP DP  RH WIND       PRES   REMARKS
Jones Beach      N/A     34 N/A N/A W10         N/A  WCI  26
Wantagh          N/A     34  32  93 W7          N/A  WCI  28
Hempstead        N/A     34  34 100 W7        30.02R WCI  28
Matinecock Pt    N/A     34 N/A N/A W16         N/A  WCI  23
Farmingdale    CLOUDY    33  32  96 W8        29.97R VSB 3/4 WCI  26
MacArthur/ISP  CLOUDY    33  33 100 W8        29.95R WCI  26
Shirley        CLOUDY    33  33 100 W6        29.96R WCI  28
Mt Sinai Harb    N/A    N/A N/A N/A CALM        N/A
Westhampton    CLOUDY    33  33 100 W8        29.96R WCI  26
East Hampton   LGT RAIN  34  34  99 W3        29.91S
Southold         N/A     34  34 100 W3          N/A
Montauk          N/A     37  37 100 NW6       29.91R WCI  32
$$

NYZ052-065-067-181000-
Hudson Valley

CITY           SKY/WX    TMP DP  RH WIND       PRES   REMARKS
White Plains   MOCLDY    32  31  96 W7        29.95R FOG     WCI  26
Larchmont Harb   N/A     32 N/A N/A W7          N/A  WCI  26
Croton On Huds   N/A     32 N/A N/A MISG        N/A
Somers           N/A     32  32 100 W2          N/A
Brewster         N/A     32  30  93 NW3         N/A
Newburgh       LGT SNOW  30  30 100 CALM      29.96R FOG
Montgomery     LGT SNOW  30  28  92 S6        29.97R FOG     WCI  24
Otisville        N/A     32  30  93 S3          N/A
Warwick          N/A     32  32 100 W6          N/A  WCI  26
Suffern          N/A     32  32 100 CALM        N/A
Poughkeepsie   LGT SNOW  30  28  92 SW3       29.98R FOG
Albany         LGT SNOW  30  27  88 SW3       29.98R FOG
$$

NJZ001-105-106-008-010-013-015-019>022-104-181000-
New Jersey

CITY           SKY/WX    TMP DP  RH WIND       PRES   REMARKS
Newark/Liberty MOCLDY    34  32  92 W8        30.02R WCI  27
Teterboro      CLOUDY    34  31  88 W6        29.99R FOG     WCI  29
Caldwell       CLOUDY    32  32 100 VRB3      30.02R
Somerville     CLOUDY    32  32 100 CALM      30.01R
Linden         CLOUDY    33  32  96 W5        30.01R WCI  29
Perth Amboy      N/A     32 N/A N/A W9          N/A  WCI  24
Sussex         CLOUDY    30  29  96 SW6       29.99R WCI  24
Andover          N/A     31  30  96 S3        30.00R
Trenton        CLOUDY    34  32  92 W9        30.03R WCI  27
Millville      CLOUDY    34  33  96 W9        30.07R WCI  27
Atlantic City  CLOUDY    35  34  96 W15G24    30.06R WCI  25
Wrightstown    CLOUDY    33  32  96 W10       30.01  WCI  25
Toms River     CLOUDY    33  33 100 W10       30.04R WCI  25
Belmar         CLOUDY    33  32  96 W10       30.03R WCI  25
$$

PAZ047>061-062-071-181000-
Eastern Pennsylvania

CITY           SKY/WX    TMP DP  RH WIND       PRES   REMARKS
Philadelphia   CLOUDY    35  32  88 W14       30.07R WCI  26
Allentown      MOCLDY    33  28  81 W9        30.04R WCI  25
Scranton       CLOUDY    30  28  92 SW8       30.01R WCI  22
$$

CTZ002-004>006-009-010-012-RIZ004-006-007-MAZ004-011-015-181000-
Southern New England

 In CT

CITY           SKY/WX    TMP DP  RH WIND       PRES   REMARKS
Bradley Intl   LGT SNOW  30  28  92 NW6       29.95R FOG     WCI  24
Hartford       LGT SNOW  31  29  92 NW6       29.96R FOG     WCI  25
Danbury        CLOUDY    32  30  92 CALM      29.96R
Wtrbury/Oxford FLURRIES  29  28  96 W6        29.94R WCI  23
Norwalk Harbor   N/A    N/A N/A N/A W8          N/A
Bridgeport     CLOUDY    33  32  96 W6        29.96R FOG     WCI  28
Meriden        LGT SNOW  30  29  96 NW5       29.95R FOG     WCI  25
New Haven      CLOUDY    34  32  92 NW6       29.95R WCI  29
Chester        FLURRIES  34  32  93 CALM      29.92R
Groton         LGT RAIN  34  32  92 NW3       29.90R
Willimantic    LGT SNOW  32  31  96 CALM      29.91R FOG

 In RI

CITY           SKY/WX    TMP DP  RH WIND       PRES   REMARKS
Providence     FRZ RAIN  33  33 100 NW6       29.88F VSB 1   WCI  28
Block Island   LGT RAIN  35  35 100 NW6       29.88F WCI  30
Westerly       LGT RAIN  34  34 100 CALM      29.89F FOG

In MA

CITY           SKY/WX    TMP DP  RH WIND       PRES   REMARKS
Boston         LGT SNOW  33  32  96 N6        29.88F FOG     WCI  28
Worcester      LGT SNOW  28  26  92 NW6       29.86S FOG     WCI  22
Westfield      LGT SNOW  29  29 100 N3        29.94R FOG
Provincetown   LGT RAIN  38  37  97 CALM      29.86F FOG
Nantucket      LGT RAIN  42  42 100 E7        29.82F
$$

ANZ330-335-338-340-345-350-353-355-181000-
Coastal Marine Observations


STATION/POSITION TIME  SKY/WX   TEMP    WIND        PRES    VSBY  WAVE
                                AIR SEA DIR/SP/G                  HT/PER
                 (UTC)          (F)     (DEG/KT/KT) (MB)    (MI)  (FT/S)
NY Harb Entrance 0850            35 39  280/ 16/ 17 1015.1          2/ 5
20 S Fire Island 0850            37 42  280/ 17/ 21 1014.7          3/ 5
15 E Barnegat Li 0830               41                N/A           3/10
Hudson Canyon    0850            43 46  300/ 25/ 33 1013.4          6/ 5
Kings Point      0830            34 35  330/  8/ 10 1016.2
Execution Rocks  NOT AVBL
Western LI Sound NOT AVBL
Central LI Sound 0845            34     280/ 10/ 14   N/A           1
Robbins Reef     0842            34     280/  9/ 11 1016.4
$$


>>>>>>>>>>>>>>>>>>>>>>>>>>>> KEY <<<<<<<<<<<<<<<<<<<<<<<<<<<
>                                                          <
>     SKY/WX - Sky Condition/Present Weather               <
>     TMP    - Temperature in Fahrenheit                   <
>     DP     - Dew Point in Fahrenheit                     <
>     RH     - Relative Humidity in Percent                <
>     WIND   - Direction (from) and Speed in MPH           <
>     PRES   - Mean Sea Level Pressure (inches of Hg)      <
>     WCI    - Wind Chill Index                            <
>     VSB    - Visibility in Miles                         <
>     HX     - Heat Index                                  <
>     TC     - Temperature in Celsius                      <
>     VRB    - Varibale Wind Direction                     <
>                                                          <
>>>>>>>>>>>>>>>>>>>>>>>>>>>> KEY <<<<<<<<<<<<<<<<<<<<<<<<<<<




USA.gov is the U.S. government's official web portal to all federal, state and local government web resources and services.